Location: Aulnoy
(48.8410°N, 3.0967°E)
Time: 10:11:24
(UTC+00:00)

ATLAS CENTAUR R/B - Pass Details

Date: 09 February 2023
Orbit: 450 x 653 km, 64.7° (Epoch: 19 March)

Event Time Altitude Azimuth Distance (km) Brightness Sun altitude
Rises 18:37:44 0° 299° (WNW) 2,921 6.0 -16.8°
Reaches altitude 10° 18:42:10 10° 339° (NNW) 1,959 4.4 -17.5°
Maximum altitude 18:43:04 11° 351° (N) 1,913 4.2 -17.7°
Drops below altitude 10° 18:43:58 10° 2° (N) 1,934 4.0 -17.8°
Enters shadow 18:45:23 - 19° (NNE) 2,098 4.1 -18.0°
